This is the latest recevied weather packets stored in our database for station/object K0SNA. If no packets are shown the sender has not sent any weather packets the latest 10 day(s).
| Time | Temp. | Humidity | Pressure | Rain* | Wind** | Luminosity | Snow |
|---|---|---|---|---|---|---|---|
| 1788556663 | 30° C | 67% | 1012.6 hPa | 0 mm | - | 363 W/m² | - |
| 1788556358 | 30° C | 68% | 1012.6 hPa | 0 mm | - | 376 W/m² | - |
| 1788556053 | 30.56° C | 67% | 1012.6 hPa | 0 mm | - | 382 W/m² | - |
| 1788555747 | 30° C | 67% | 1012.7 hPa | 0 mm | - | 395 W/m² | - |
| 1788555444 | 30° C | 68% | 1012.6 hPa | 0 mm | - | 409 W/m² | - |
| 1788555140 | 30° C | 69% | 1012.8 hPa | 0 mm | - | 419 W/m² | - |
| 1788554843 | 30° C | 68% | 1012.5 hPa | 0 mm | - | 430 W/m² | - |
| 1788554532 | 30° C | 69% | 1012.7 hPa | 0 mm | - | 439 W/m² | - |
| 1788554227 | 30° C | 68% | 1012.6 hPa | 0 mm | - | 449 W/m² | - |
| 1788553918 | 30.56° C | 67% | 1012.5 hPa | 0 mm | - | 457 W/m² | - |
| 1788553613 | 29.44° C | 70% | 1012.5 hPa | 0 mm | - | 467 W/m² | - |
| 1788553310 | 29.44° C | 71% | 1012.8 hPa | 0 mm | - | 476 W/m² | - |
| 1788553004 | 29.44° C | 71% | 1012.6 hPa | 0 mm | - | 486 W/m² | - |
| 1788552699 | 29.44° C | 70% | 1012.5 hPa | 0 mm | - | 495 W/m² | - |
| 1788552398 | 28.89° C | 71% | 1012.5 hPa | 0 mm | - | 504 W/m² | - |
| 1788552094 | 28.89° C | 72% | 1012.7 hPa | 0 mm | - | 510 W/m² | - |
| 1788551792 | 28.89° C | 72% | 1012.8 hPa | 0 mm | - | 520 W/m² | - |
| 1788551487 | 28.89° C | 72% | 1012.8 hPa | 0 mm | - | 525 W/m² | - |
| 1788551186 | 29.44° C | 71% | 1012.6 hPa | 0 mm | - | 525 W/m² | - |
| 1788550881 | 29.44° C | 72% | 1012.6 hPa | 0 mm | - | 538 W/m² | - |
| 1788550575 | 28.89° C | 73% | 1012.8 hPa | 0 mm | - | 545 W/m² | - |
| 1788550271 | 28.89° C | 72% | 1012.8 hPa | 0 mm | - | 548 W/m² | - |
| 1788549966 | 28.89° C | 74% | 1012.6 hPa | 0 mm | - | 550 W/m² | - |
| 1788549662 | 28.89° C | 74% | 1012.8 hPa | 0 mm | - | 559 W/m² | - |
| 1788549358 | 28.33° C | 75% | 1012.6 hPa | 0 mm | - | 564 W/m² | - |
* Rain latest hour (hover to see other rain measurements)
** Current wind speed in m/s (hover to see current wind gust speed)